sat.trackr.live / text

‹ back to catalog

STARLINK-38059

NORAD 69714 · 2026-147L

PAYLOAD ACTIVE UNKNOWN

§ Identity

Operator
Country
US
Launch date
2026-06-28
Launch site
AFWTR
Launch vehicle
Mass (kg)
RCS (m²)

Purposes: comms

External: N2YO · Heavens-Above · Gunter

§ Orbital elements

Epoch: 2026-09-19T01:38:11.112288Z

Period
93.91 min
Inclination
97.2837°
Eccentricity
0.0000362
Mean motion
15.33443030 rev/d
Perigee alt
465.3 km
Apogee alt
465.8 km
Semi-major
6,843.7 km
B*
3.7208e-4
RAAN
298.4351°
Arg perigee
229.6472°
Mean anomaly
130.4739°
Rev number
1,401

§ Raw data

STARLINK-380591 69714U 26147L   26262.06818417  .00011955  00000+0  37208-3 0  99932 69714  97.2837 298.4351 0000362 229.6472 130.4739 15.33443030 14019

JSON: /api/v1/satellites/69714 · /tle

For live sub-satellite position, see the globe view (requires WebGL).

§ Visibility from observer

Set your observer location to see the next 7 days of passes ≥ 10°. The values pass through the URL so the page stays shareable.

No JS? Fill the form by hand. The geolocation button needs JavaScript.